W2DEN Weather Reports


Display with metric or nautical units.
time (UTC)temp
F
wind
direction
speed
MPH
gust
MPH
rain 1hr
in
rain 24hr
in
rain mn
in
humidity
%
barometer
mb
20260904090316 74 0.0 0.0 0.00 0.03 0.00 96 1015.0
20260904085316 75 0.0 0.0 0.00 0.03 0.00 96 1014.9
20260904084316 75 0.0 0.0 0.00 0.03 0.00 96 1014.8
20260904083315 75 0.0 0.0 0.00 0.03 0.00 96 1014.8
20260904082317 75 0.0 0.0 0.00 0.03 0.00 96 1014.8
20260904081316 75 0.0 0.0 0.00 0.03 0.00 96 1014.8
20260904080315 75 0.0 0.0 0.00 0.03 0.00 96 1014.9
20260904075316 75 0.0 0.0 0.00 0.03 0.00 96 1014.9
20260904074336 75 0.0 0.0 0.00 0.03 0.00 96 1014.9
20260904073316 75 0.0 0.0 0.00 0.03 0.00 96 1014.9
20260904072315 75 0.0 0.0 0.00 0.03 0.00 96 1014.9
20260904071316 75 0.0 0.0 0.00 0.03 0.00 96 1015.0
20260904070318 75 0.0 0.0 0.00 0.03 0.00 96 1015.0
20260904065317 75 0.0 0.0 0.00 0.03 0.00 96 1014.9
20260904064317 76 0.0 0.0 0.00 0.03 0.00 96 1015.1
20260904063317 76 0.0 0.0 0.00 0.03 0.00 96 1015.1
20260904062318 76 0.0 0.0 0.00 0.03 0.00 96 1015.1
20260904061318 76 0.0 0.0 0.00 0.03 0.00 96 1015.2
20260904060318 76 0.0 0.0 0.00 0.03 0.00 96 1015.3
20260904055317 76 0.0 0.0 0.00 0.03 0.00 96 1015.3
20260904054319 76 0.0 0.0 0.00 0.03 0.00 95 1015.5
20260904053337 76 0.0 0.0 0.00 0.03 0.00 95 1015.7
20260904052317 76 0.0 0.0 0.00 0.03 0.00 95 1015.8
20260904051419 76 0.0 0.0 0.00 0.03 0.00 95 1015.7
20260904050318 76 0.0 0.0 0.00 0.03 0.00 95 1016.0
20260904045317 76 0.0 0.0 0.00 0.03 0.00 95 1015.9
20260904044318 76 0.0 0.0 0.00 0.03 0.00 95 1016.0
20260904043318 76 0.0 0.0 0.00 0.03 0.00 95 1015.9
20260904042318 76 0.0 0.0 0.00 0.03 0.00 95 1015.9
20260904041338 76 0.0 0.0 0.00 0.03 0.00 95 1016.0
20260904040337 76 0.0 0.0 0.00 0.03 0.00 95 1016.0
20260904035316 77 0.0 0.0 0.00 0.03 0.03 95 1016.0
20260904034317 77 0.0 0.0 0.00 0.03 0.03 95 1016.1
20260904033316 77 0.0 0.0 0.00 0.03 0.03 95 1016.2
20260904032317 77 0.0 0.0 0.00 0.03 0.03 95 1016.2
20260904031317 77 0.0 0.0 0.00 0.03 0.03 95 1016.3
20260904030318 77 0.0 0.0 0.00 0.03 0.03 94 1016.3
20260904025316 77 0.0 0.0 0.00 0.03 0.03 94 1016.6
20260904024317 77 0.0 0.0 0.00 0.03 0.03 94 1016.7
20260904023316 77 0.0 0.0 0.00 0.03 0.03 94 1016.6
20260904022318 77 0.0 0.0 0.00 0.03 0.03 94 1016.5
20260904021317 77 0.0 0.0 0.00 0.03 0.03 94 1016.4
20260904020316 77 0.0 0.0 0.00 0.03 0.03 94 1016.3
20260904015359 78 0.0 0.0 0.00 0.03 0.03 94 1016.2
20260904014436 78 0.0 0.0 0.00 0.03 0.03 93 1016.1
20260904013416 78 0.0 0.0 0.00 0.03 0.03 93 1016.0
20260904012416 78 0.0 0.0 0.00 0.03 0.03 93 1016.0
20260904011417 78 0.0 0.0 0.00 0.03 0.03 93 1015.9
20260904010416 79 0.0 0.0 0.00 0.03 0.03 93 1015.7
20260904005416 79 0.0 0.0 0.00 0.03 0.03 92 1015.7
20260904004436 79 0.0 0.0 0.00 0.03 0.03 92 1015.7
20260904003418 79 0.0 0.0 0.00 0.03 0.03 91 1015.6
20260904002416 80 0.0 0.0 0.00 0.03 0.03 91 1015.5
20260904001416 80 0.0 0.0 0.00 0.03 0.03 90 1015.4
20260904000417 81 0.0 0.0 0.00 0.03 0.03 89 1015.3
20260903235416 81 0.0 0.0 0.00 0.03 0.03 88 1015.4
20260903234416 82 0.0 0.0 0.00 0.03 0.03 87 1015.4
20260903233416 82 0.0 0.0 0.00 0.03 0.03 86 1015.3
20260903232416 83 0.0 1.0 0.00 0.03 0.03 84 1015.4
20260903231416 84 0.0 1.0 0.00 0.03 0.03 83 1015.3
20260903230436 84 0.0 0.0 0.00 0.03 0.03 81 1015.3
20260903225416 84 0.0 1.0 0.00 0.03 0.03 80 1015.3
20260903224416 85 0.0 1.0 0.00 0.03 0.03 79 1015.3
20260903223517 85 45 2.0 5.0 0.00 0.03 0.03 77 1015.2
20260903222456 85 0.0 1.0 0.03 0.03 0.03 81 1015.2
20260903221437 84 0.0 0.0 0.03 0.03 0.03 82 1015.3
20260903220416 84 0.0 1.0 0.03 0.03 0.03 81 1015.3
20260903215416 84 23 1.0 3.0 0.03 0.03 0.03 85 1015.3
20260903214416 84 0.0 0.0 0.03 0.03 0.03 85 1015.2
20260903213416 86 0.0 0.0 0.03 0.03 0.03 79 1015.3
20260903212416 90 180 2.0 3.0 0.00 0.00 0.00 68 1015.1
20260903211416 90 135 1.0 2.0 0.00 0.00 0.00 67 1015.1
20260903210416 90 158 1.0 2.0 0.00 0.00 0.00 65 1015.1
20260903205416 91 225 2.0 4.0 0.00 0.00 0.00 64 1015.1
20260903204416 91 135 2.0 5.0 0.00 0.00 0.00 63 1015.2
20260903203416 91 68 2.0 5.0 0.00 0.00 0.00 62 1015.4
20260903202416 91 135 2.0 4.0 0.00 0.00 0.00 64 1015.7
20260903201416 91 23 2.0 3.0 0.00 0.00 0.00 67 1015.7
20260903200416 90 90 1.0 1.0 0.00 0.00 0.00 68 1015.8
20260903195436 90 90 2.0 3.0 0.00 0.00 0.00 65 1016.0
20260903194416 92 90 3.0 8.0 0.00 0.00 0.00 61 1016.0
20260903193416 94 68 2.0 6.0 0.00 0.00 0.00 57 1015.9
20260903192416 94 90 2.0 3.0 0.00 0.00 0.00 57 1015.9
20260903191416 94 225 2.0 3.0 0.00 0.00 0.00 56 1015.8
20260903190416 93 68 3.0 5.0 0.00 0.00 0.00 58 1015.8
20260903185416 94 23 2.0 3.0 0.00 0.00 0.00 56 1015.8
20260903184417 94 158 1.0 1.0 0.00 0.00 0.00 58 1015.9
20260903183416 93 135 4.0 7.0 0.00 0.00 0.00 57 1016.1
20260903182416 93 68 1.0 4.0 0.00 0.00 0.00 60 1016.3
20260903181416 92 0 2.0 5.0 0.00 0.00 0.00 62 1016.4
20260903180417 93 0 1.0 3.0 0.00 0.00 0.00 61 1016.5
20260903175416 92 315 3.0 5.0 0.00 0.00 0.00 60 1016.4
20260903174416 92 135 2.0 5.0 0.00 0.00 0.00 62 1016.6
20260903173416 92 0.0 2.0 0.00 0.00 0.00 61 1016.7
20260903172416 91 338 2.0 4.0 0.00 0.00 0.00 63 1016.8
20260903171416 92 90 2.0 3.0 0.00 0.00 0.00 62 1017.0
20260903170416 90 180 1.0 2.0 0.00 0.00 0.00 65 1017.0
20260903165415 91 23 1.0 2.0 0.00 0.00 0.00 65 1017.1
20260903164417 91 0 3.0 6.0 0.00 0.00 0.00 63 1017.3
20260903163417 90 113 3.0 5.0 0.00 0.00 0.00 61 1017.4
20260903162416 90 203 1.0 2.0 0.00 0.00 0.00 64 1017.4
20260903161416 90 135 1.0 3.0 0.00 0.00 0.00 66 1017.5
20260903160416 89 135 2.0 4.0 0.00 0.00 0.00 68 1017.6
20260903155416 88 225 2.0 4.0 0.00 0.00 0.00 68 1017.6
20260903154416 88 0.0 1.0 0.00 0.00 0.00 72 1017.6
20260903153416 87 315 2.0 4.0 0.00 0.00 0.00 72 1017.5
20260903152416 88 23 1.0 2.0 0.00 0.00 0.00 70 1017.6
20260903151416 87 45 2.0 4.0 0.00 0.00 0.00 75 1017.5
20260903150415 86 0.0 1.0 0.00 0.00 0.00 80 1017.4
20260903145416 85 68 2.0 3.0 0.00 0.00 0.00 80 1017.4
20260903144416 85 23 1.0 3.0 0.00 0.00 0.00 82 1017.3
20260903143436 85 180 1.0 1.0 0.00 0.00 0.00 81 1017.4
20260903142416 85 23 2.0 3.0 0.00 0.00 0.00 82 1017.3
20260903141418 84 23 1.0 2.0 0.00 0.00 0.00 85 1017.3
20260903140418 83 68 1.0 2.0 0.00 0.00 0.00 87 1017.4
20260903135438 82 0.0 1.0 0.00 0.00 0.00 89 1017.5
20260903134438 81 0.0 0.0 0.00 0.00 0.00 90 1017.6
20260903133439 80 0.0 1.0 0.00 0.00 0.00 95 1017.5
20260903132417 78 0.0 1.0 0.00 0.00 0.00 96 1017.6
20260903131418 77 45 1.0 2.0 0.00 0.00 0.00 96 1017.6
20260903130418 77 0.0 1.0 0.00 0.00 0.00 96 1017.6
20260903125418 76 0.0 1.0 0.00 0.00 0.00 96 1017.6
20260903124418 76 0.0 0.0 0.00 0.00 0.00 96 1017.6
20260903123417 75 0.0 0.0 0.00 0.00 0.00 96 1017.6
20260903122456 75 0.0 0.0 0.00 0.00 0.00 96 1017.6
20260903122018 75 0.0 0.0 0.00 0.00 0.00 96 1017.6
20260903121038 75 0.0 0.0 0.00 0.00 0.00 96 1017.5
20260903120038 74 0.0 0.0 0.00 0.00 0.00 96 1017.5
20260903115039 74 0.0 0.0 0.00 0.00 0.00 96 1017.3
20260903114038 74 0.0 0.0 0.00 0.00 0.00 96 1017.2
20260903113019 74 0.0 0.0 0.00 0.00 0.00 96 1017.0
20260903112017 73 0.0 0.0 0.00 0.00 0.00 96 1016.9
20260903111018 73 0.0 0.0 0.00 0.00 0.00 96 1016.6
20260903110019 72 0.0 0.0 0.00 0.00 0.00 96 1016.6
20260903105037 72 0.0 0.0 0.00 0.00 0.00 96 1016.7
20260903104017 72 0.0 0.0 0.00 0.00 0.00 96 1016.6
20260903103018 71 0.0 0.0 0.00 0.00 0.00 96 1016.5
20260903102019 71 0.0 0.0 0.00 0.00 0.00 96 1016.5
20260903101019 71 0.0 0.0 0.00 0.00 0.00 96 1016.4
20260903100018 71 0.0 0.0 0.00 0.00 0.00 96 1016.5
20260903095039 71 0.0 0.0 0.00 0.00 0.00 96 1016.4
20260903094017 71 0.0 0.0 0.00 0.00 0.00 96 1016.4
20260903093017 71 0.0 0.0 0.00 0.00 0.00 96 1016.5
20260903092017 71 0.0 0.0 0.00 0.00 0.00 96 1016.3
20260903091017 72 0.0 0.0 0.00 0.00 0.00 96 1016.3